[[{"header":{"parameterUnit":"m.s-1","parameterCategory":2,"la1":30.2991,"la2":30.254,"lo1":-89.0895,"lo2":-89.0444,"dy":0.0017,"dx":0.0017,"nx":28,"ny":28,"refTime":"2023-08-15T21:00:00:Z","depth":"0","parameterNumber":2,"parameterNumberName":"U-component_of_CURRENTS"},"data":[0,0,0,0,0,0,0,0,0,0,0,0,0,0,0,0,0,0,0,0,0,0,0,0,0,0,0,0,0,0,0,0,0,0,0,0,0,0,0,0,0,0,0,0,0,0,0,0,0,0,0,0,0,0,0,0,0,0,0.491,0.4909,0,0.4873,0.4873,0.4873,0.4821,0.4819,0.4817,0.4815,0.5076,0.5085,0.5093,0,0,0,0,0,0,0,0,0,0,0,0,0,0.4887,0.4889,0.491,0.4909,0.4907,0.4872,0.4873,0.4874,0.4821,0.4819,0.4817,0.4814,0.5073,0.5084,0.5094,0,0,0,0,0,0,0,0,0,0,0,0,0,0.4889,0.489,0.491,0.4869,0.4864,0.4872,0.4873,0.4874,0.4822,0.4819,0.4816,0.4813,0.507,0.5083,0.5096,0.5234,0,0,0.5136,0.5141,0,0,0,0,0,0,0,0,0.4889,0.4891,0.4876,0.4871,0.4866,0.4839,0.4959,0.5005,0.4822,0.485,0.4815,0.4812,0.502,0.5036,0.5047,0.5246,0.5257,0.5137,0.5145,0.515,0.5154,0,0,0,0,0,0,0,0.4889,0.4892,0.4907,0.4875,0.4868,0.4834,0.4833,0.4967,0.4966,0.4847,0.484,0.4819,0.502,0.5035,0.5054,0.5261,0.5136,0.5148,0.5156,0.5161,0.5598,0.5602,0,0,0,0,0,0,0.4878,0.4893,0.4908,0.4904,0.4858,0.4836,0.4835,0.4859,0.4957,0.4963,0.4822,0.4817,0.5014,0.5039,0.5063,0.5264,0.515,0.5163,0.517,0.5594,0.5599,0.5603,0,0,0,0,0,0,0.4878,0.4881,0.4909,0.4885,0.4885,0.4839,0.4867,0.486,0.4877,0.4932,0.4946,0.4844,0.5012,0.5045,0.5214,0.5272,0.5168,0.518,0.559,0.5596,0.5601,0.5648,0,0,0,0,0,0,0.4879,0.4883,0.4909,0.4887,0.4885,0.4982,0.4868,0.4861,0.4863,0.4857,0.4958,0.4977,0.5013,0.5194,0.5227,0.5289,0.5191,0.5585,0.5592,0.5599,0.5641,0.5654,0.5665,0,0,0,0,0,0.4879,0.4981,0.4912,0.4913,0.4921,0.4986,0.4989,0.4947,0.4867,0.494,0.4974,0.4974,0.5259,0.521,0.5247,0.5313,0.5582,0.559,0.5599,0.5636,0.5652,0.5665,0,0,0,0,0,0,0.5029,0.4981,0.4908,0.4996,0.4995,0.4974,0.5024,0.4966,0.5041,0.5023,0.5054,0.5084,0.5263,0.529,0.5233,0.5458,0.5411,0.5427,0.5426,0.5442,0.5454,0.5429,0.5201,0,0,0,0,0,0.5053,0.5084,0.5045,0.5109,0.5115,0.5056,0.5067,0.5031,0.5069,0.5092,0.5152,0.5218,0.5329,0.5382,0.5509,0.5642,0.5663,0.57,0.5712,0.5721,0.5728,0.5815,0.5834,0.5631,0.563,0.563,0,0,0.5106,0.5094,0.5101,0.5134,0.5119,0.5157,0.5065,0.5107,0.5133,0.5123,0.5236,0.5307,0.5388,0.5539,0.5613,0.5559,0.5794,0.5732,0.5739,0.574,0.5826,0.5845,0.5862,0.5636,0.5635,0.5634,0,0,0.5235,0.5241,0.5285,0.53,0.528,0.5263,0.5276,0.5272,0.5282,0.5385,0.5378,0.5472,0.5638,0.5686,0.5728,0.5889,0.5887,0.5921,0.593,0.6015,0.6032,0.6046,0.6099,0.6118,0.5885,0.5885,0.5885,0,0.528,0.5323,0.5322,0.5373,0.5356,0.5312,0.5338,0.5389,0.5436,0.5431,0.5445,0.561,0.5704,0.5809,0.5862,0.5917,0.5946,0.586,0.6027,0.6042,0.6056,0.6106,0.6126,0.5888,0.5888,0.5888,0.5887,0,0.5403,0.5435,0.5492,0.5495,0.5525,0.5562,0.557,0.5616,0.5592,0.5581,0.5699,0.5811,0.5867,0.5928,0.5956,0.6084,0.6069,0.606,0.5976,0.6078,0.6126,0.6146,0.5893,0.5892,0.5891,0.589,0,0,0.5454,0.5537,0.5539,0.5516,0.5558,0.5578,0.5663,0.5674,0.5657,0.5761,0.5759,0.5964,0.5948,0.6,0.6039,0.6115,0.6266,0.6124,0.6127,0.6151,0.6435,0.6239,0.6241,0.6277,0.6281,0.6284,0.6426,0,0.5495,0.5579,0.561,0.565,0.5667,0.5654,0.5716,0.5731,0.5751,0.5788,0.5861,0.5941,0.5998,0.6015,0.6112,0.624,0.6322,0.6227,0.6355,0.6359,0.6151,0.6259,0.5927,0.6009,0.6446,0.6449,0.6451,0,0.5541,0.558,0.5627,0.5629,0.5631,0.5661,0.5634,0.569,0.5746,0.5761,0.582,0.5882,0.603,0.6062,0.6307,0.6239,0.6356,0.6445,0.6452,0.6262,0.6199,0.5983,0.6029,0.5818,0.6482,0.6479,0.6477,0,0.5487,0.5561,0.5571,0.5581,0.5625,0.5612,0.5622,0.5655,0.5666,0.5744,0.5749,0.5901,0.5978,0.6166,0.635,0.6349,0.6593,0.66,0.6531,0.6518,0.6255,0.621,0.6084,0.6788,0.6787,0.6787,0.6787,0,0.5479,0.548,0.554,0.5542,0.5521,0.556,0.5533,0.5564,0.5602,0.561,0.573,0.5778,0.6017,0.6162,0.6347,0.6475,0.6591,0.6557,0.655,0.6261,0.6217,0.6035,0.6025,0.6792,0.6791,0.679,0.6789,0,0.5417,0.5466,0.547,0.55,0.55,0.5481,0.5478,0.5467,0.5517,0.5539,0.5572,0.5717,0.5894,0.6088,0.6373,0.6427,0.6407,0.6616,0.6234,0.6178,0.5866,0.5874,0.5691,0.5558,0.6562,0.6559,0.6555,0,0.5391,0.5397,0.5422,0.5417,0.5426,0.5408,0.5394,0.5424,0.5422,0.55,0.5515,0.5661,0.5738,0.6011,0.613,0.6326,0.6255,0.6123,0.6064,0.5801,0.581,0.5688,0.5583,0.5759,0.575,0.5742,0.5736,0,0.5334,0.5345,0.5358,0.5345,0.5329,0.5292,0.5281,0.5259,0.5299,0.5308,0.5335,0.5396,0.5583,0.5587,0.5777,0.5879,0.5768,0.5965,0.5807,0.5261,0.5012,0.489,0.5711,0.5666,0.5673,0.5678,0.5682,0.5685,0.528,0.5272,0.5285,0.5238,0.5229,0.515,0.5033,0.5043,0.4986,0.49,0.5097,0.5012,0.5101,0.5291,0.5331,0.5106,0.5326,0.5012,0.508,0.5007,0.4738,0.5376,0.524,0.5244,0.5247,0.5251,0.5254,0,0.5172,0.5173,0.5168,0.5088,0.4985,0.5013,0.492,0.4752,0.4603,0.4609,0.4566,0.4432,0.4397,0.4437,0.4384,0.4263,0.4134,0.4165,0.3926,0.3905,0.4545,0.4359,0.388,0.388,0.388,0.388,0.388,0.3881,0.5128,0.5058,0.5037,0.4834,0.4765,0.4512,0.4395,0.4209,0.4118,0.3832,0.3647,0.3694,0.3833,0.3843,0.365,0.3568,0.3391,0.3224,0.3364,0.3793,0.3876,0.3955,0.3768,0.3173,0.3173,0.2472,0.2467,0.2464]},{"header":{"parameterUnit":"m.s-1","parameterCategory":2,"la1":30.2991,"la2":30.254,"lo1":-89.0895,"lo2":-89.0444,"dy":0.0017,"dx":0.0017,"nx":28,"ny":28,"refTime":"2023-08-15T21:00:00:Z","depth":"0","parameterNumber":3,"parameterNumberName":"V-component_of_CURRENTS"},"data":[0,0,0,0,0,0,0,0,0,0,0,0,0,0,0,0,0,0,0,0,0,0,0,0,0,0,0,0,0,0,0,0,0,0,0,0,0,0,0,0,0,0,0,0,0,0,0,0,0,0,0,0,0,0,0,0,0,0,0.036,0.0361,0,0.0482,0.0483,0.0484,0.0494,0.0492,0.0491,0.049,0.0646,0.0651,0.0657,0,0,0,0,0,0,0,0,0,0,0,0,0,0.0261,0.0262,0.036,0.0361,0.0363,0.0481,0.0483,0.0485,0.0494,0.0492,0.0491,0.0489,0.0644,0.0651,0.0657,0,0,0,0,0,0,0,0,0,0,0,0,0,0.0334,0.0262,0.0359,0.0383,0.0386,0.0481,0.0483,0.0485,0.0494,0.0492,0.0491,0.0489,0.0642,0.065,0.0658,0.0744,0,0,0.0682,0.0686,0,0,0,0,0,0,0,0,0.033,0.0337,0.0378,0.0381,0.0385,0.0471,0.0505,0.0574,0.0495,0.0452,0.049,0.0488,0.0593,0.0605,0.063,0.0752,0.0758,0.0683,0.0688,0.0691,0.0694,0,0,0,0,0,0,0,0.0324,0.0333,0.0407,0.0379,0.0384,0.043,0.0437,0.0519,0.0531,0.0456,0.0457,0.0473,0.0595,0.0622,0.0634,0.0761,0.0683,0.069,0.0695,0.0698,0.1016,0.1019,0,0,0,0,0,0,0.0307,0.0328,0.0403,0.0411,0.0353,0.0433,0.0441,0.0445,0.053,0.0541,0.0474,0.0473,0.061,0.0625,0.0639,0.0799,0.0691,0.0699,0.0703,0.1012,0.1017,0.1021,0,0,0,0,0,0,0.0304,0.0312,0.0398,0.0373,0.0388,0.0436,0.0441,0.0448,0.0477,0.0544,0.0555,0.0494,0.0609,0.0628,0.0738,0.0803,0.0702,0.0709,0.1008,0.1013,0.1019,0.1085,0,0,0,0,0,0,0.0301,0.031,0.0319,0.0372,0.0388,0.0473,0.0443,0.0452,0.049,0.0489,0.0566,0.0578,0.0609,0.0726,0.0746,0.0812,0.0716,0.1003,0.101,0.1017,0.1078,0.1092,0.1104,0,0,0,0,0,0.0297,0.0343,0.0318,0.0328,0.0394,0.0475,0.049,0.0516,0.0492,0.0529,0.0581,0.0575,0.0783,0.0736,0.0758,0.0828,0.1,0.1008,0.1016,0.1073,0.109,0.1104,0,0,0,0,0,0,0.0347,0.0349,0.0323,0.0375,0.0417,0.0477,0.053,0.0524,0.0593,0.0591,0.0629,0.0649,0.0771,0.0796,0.0742,0.0942,0.0889,0.0902,0.0924,0.0941,0.0954,0.0965,0.0722,0,0,0,0,0,0.0346,0.0363,0.0381,0.0434,0.0449,0.0479,0.0516,0.0523,0.0584,0.061,0.0667,0.0736,0.0826,0.0875,0.0956,0.1069,0.1052,0.1128,0.1141,0.1152,0.1179,0.1198,0.1213,0.1048,0.1048,0.1047,0,0,0.0389,0.0393,0.0407,0.0442,0.0477,0.0544,0.0499,0.0563,0.0633,0.0622,0.0752,0.079,0.0867,0.0995,0.1051,0.1021,0.1187,0.1162,0.117,0.1193,0.1208,0.1223,0.1237,0.1053,0.1052,0.1051,0,0,0.05,0.0476,0.0522,0.0552,0.0588,0.0608,0.0621,0.0674,0.0708,0.0819,0.0833,0.0905,0.1047,0.1109,0.1159,0.1297,0.1255,0.1321,0.14,0.1417,0.143,0.1441,0.1411,0.1419,0.1326,0.1326,0.1326,0,0.0537,0.0589,0.0564,0.0624,0.0664,0.0638,0.0714,0.0766,0.0853,0.0907,0.0874,0.1072,0.1109,0.1269,0.1307,0.1326,0.1308,0.1326,0.143,0.1441,0.1451,0.1418,0.1425,0.133,0.133,0.1329,0.1329,0,0.0677,0.0716,0.0764,0.0804,0.0853,0.0916,0.0954,0.1017,0.1032,0.1076,0.1215,0.1258,0.1369,0.1388,0.1392,0.1506,0.1459,0.1436,0.1376,0.147,0.143,0.1437,0.1336,0.1335,0.1333,0.1332,0,0,0.073,0.0829,0.0839,0.0873,0.0933,0.0985,0.1113,0.1211,0.1293,0.1355,0.1479,0.1586,0.1566,0.1621,0.162,0.1627,0.1651,0.1563,0.1561,0.1509,0.1655,0.1514,0.1507,0.1635,0.1638,0.164,0.1586,0,0.0826,0.0956,0.0989,0.1119,0.1172,0.1199,0.132,0.1406,0.147,0.1588,0.1622,0.1733,0.1671,0.1703,0.1713,0.1689,0.1678,0.1666,0.1595,0.1593,0.1436,0.1515,0.1428,0.1364,0.1592,0.1593,0.1594,0,0.0916,0.0984,0.1118,0.1231,0.1259,0.1341,0.1479,0.1583,0.1733,0.1787,0.1884,0.1908,0.1981,0.188,0.1875,0.1867,0.1775,0.1717,0.1713,0.157,0.1467,0.1318,0.1367,0.1151,0.1603,0.1602,0.1602,0,0.0915,0.1061,0.116,0.1198,0.1336,0.1411,0.1489,0.1638,0.1739,0.1901,0.1981,0.2068,0.2099,0.2044,0.1926,0.1907,0.1869,0.1826,0.161,0.1597,0.1507,0.1481,0.1324,0.1799,0.18,0.18,0.18,0,0.0962,0.1038,0.116,0.1208,0.1326,0.1418,0.1562,0.1666,0.1833,0.1977,0.2058,0.2169,0.2135,0.2115,0.1991,0.1821,0.1917,0.1643,0.1591,0.1524,0.1502,0.1295,0.1221,0.1798,0.1798,0.1799,0.1799,0,0.0939,0.1026,0.1128,0.1274,0.132,0.1394,0.1573,0.1696,0.184,0.2033,0.209,0.2241,0.2224,0.214,0.204,0.1879,0.1603,0.1639,0.1535,0.1472,0.1055,0.099,0.0807,0.0752,0.1416,0.1412,0.1409,0,0.0951,0.0997,0.1137,0.1201,0.1264,0.1388,0.1499,0.1671,0.1816,0.2077,0.2182,0.2244,0.2325,0.2121,0.1862,0.1624,0.1469,0.1331,0.1281,0.1029,0.0921,0.0864,0.0831,0.1181,0.1176,0.1172,0.1169,0,0.0956,0.099,0.1076,0.1195,0.1303,0.1441,0.161,0.1722,0.1961,0.2132,0.2351,0.2436,0.2262,0.2029,0.167,0.1473,0.1164,0.124,0.1039,0.0777,0.0654,0.0576,0.1184,0.1136,0.1139,0.1141,0.1143,0.1145,0.0951,0.0999,0.1109,0.1219,0.1346,0.1522,0.1648,0.185,0.2078,0.2362,0.2424,0.2539,0.2153,0.1684,0.1413,0.078,0.0898,0.0586,0.0543,0.0517,0.0422,0.0919,0.077,0.0771,0.0772,0.0773,0.0774,0,0.0968,0.1042,0.1144,0.1307,0.1447,0.1519,0.1762,0.1907,0.2171,0.2374,0.2546,0.2337,0.1846,0.1348,0.0552,0.0163,0.0086,-0.0045,-0.0119,-0.0101,0.0377,0.032,-0.0005,-0.0005,-0.0005,-0.0004,-0.0004,-0.0004,0.0995,0.1091,0.1153,0.1379,0.1499,0.1706,0.1849,0.2044,0.2211,0.2388,0.2407,0.2436,0.2027,0.0663,-0.0257,-0.045,-0.0615,-0.0717,-0.0732,-0.0419,-0.0363,-0.0309,-0.0383,-0.085,-0.0851,-0.1197,-0.1201,-0.1204]}],[{"header":{"parameterUnit":"m.s-1","parameterCategory":2,"la1":30.2991,"la2":30.254,"lo1":-89.0895,"lo2":-89.0444,"dy":0.0017,"dx":0.0017,"nx":28,"ny":28,"refTime":"2023-08-15T21:00:00:Z","depth":"2","parameterNumber":2,"parameterNumberName":"U-component_of_CURRENTS"},"data":[0,0,0,0,0,0,0,0,0,0,0,0,0,0,0,0,0,0,0,0,0,0,0,0,0,0,0,0,0,0,0,0,0,0,0,0,0,0,0,0,0,0,0,0,0,0,0,0,0,0,0,0,0,0,0,0,0,0,0.3858,0.3855,0,0.3678,0.3677,0.3677,0.3639,0.3639,0.3639,0.3639,0.3884,0.389,0.3896,0,0,0,0,0,0,0,0,0,0,0,0,0,0.3904,0.3907,0.3858,0.3854,0.3851,0.3679,0.3677,0.3676,0.3639,0.3639,0.3639,0.3639,0.3882,0.3889,0.3897,0,0,0,0,0,0,0,0,0,0,0,0,0,0.3835,0.3907,0.3859,0.3801,0.3793,0.3679,0.3677,0.3676,0.3639,0.3639,0.3639,0.3639,0.3879,0.3888,0.3898,0.3957,0,0,0.3928,0.3932,0,0,0,0,0,0,0,0,0.3839,0.3836,0.3813,0.3805,0.3795,0.3669,0.3782,0.3786,0.3639,0.3713,0.3639,0.3639,0.3842,0.3854,0.3835,0.3968,0.3979,0.3928,0.3934,0.3939,0.3941,0,0,0,0,0,0,0,0.3845,0.3841,0.3802,0.3809,0.3798,0.3692,0.3687,0.3781,0.3799,0.3707,0.37,0.3657,0.3842,0.3825,0.3842,0.3982,0.3928,0.3937,0.3943,0.3947,0.4388,0.4393,0,0,0,0,0,0,0.3852,0.3848,0.3807,0.3795,0.3801,0.3691,0.3685,0.3721,0.3788,0.379,0.3657,0.3655,0.3809,0.383,0.3851,0.4105,0.3938,0.3948,0.3953,0.4382,0.4389,0.4396,0,0,0,0,0,0,0.3856,0.3854,0.3814,0.38,0.3786,0.3691,0.373,0.3717,0.3734,0.3743,0.3757,0.3689,0.381,0.3837,0.3995,0.4108,0.3952,0.3961,0.4375,0.4384,0.4392,0.4501,0,0,0,0,0,0,0.3859,0.3859,0.3866,0.3804,0.3786,0.3839,0.3728,0.3713,0.3698,0.3696,0.3776,0.3794,0.3812,0.398,0.4005,0.4118,0.3968,0.4368,0.4379,0.439,0.449,0.4512,0.4531,0,0,0,0,0,0.3863,0.3743,0.3871,0.3862,0.3812,0.3842,0.3831,0.3765,0.37,0.377,0.3797,0.3794,0.4068,0.3993,0.402,0.4139,0.4362,0.4376,0.4389,0.448,0.4508,0.4531,0,0,0,0,0,0,0.3665,0.3729,0.3863,0.3761,0.3899,0.3833,0.3816,0.3793,0.3852,0.3847,0.3861,0.3887,0.406,0.41,0.4015,0.4304,0.422,0.424,0.4281,0.4307,0.4328,0.4323,0.3976,0,0,0,0,0,0.3676,0.374,0.3801,0.3805,0.386,0.3892,0.3874,0.3873,0.3896,0.3915,0.3966,0.4036,0.4129,0.4215,0.4298,0.4468,0.4408,0.457,0.459,0.4607,0.4627,0.456,0.4573,0.4439,0.4439,0.4439,0,0,0.3611,0.367,0.3698,0.3794,0.3892,0.3936,0.389,0.3915,0.3945,0.3945,0.4026,0.4109,0.4186,0.4355,0.4441,0.4412,0.4628,0.4624,0.4637,0.4649,0.4575,0.4587,0.4597,0.4448,0.4446,0.4445,0,0,0.355,0.3621,0.3693,0.3797,0.3944,0.3958,0.3993,0.4029,0.4067,0.4193,0.4172,0.4351,0.4479,0.4575,0.4628,0.4835,0.4718,0.4854,0.4983,0.4918,0.4926,0.4931,0.49,0.4902,0.4888,0.4888,0.4888,0,0.3525,0.3586,0.3717,0.3812,0.3839,0.3986,0.4027,0.4089,0.4166,0.4203,0.4261,0.4463,0.4596,0.4741,0.4853,0.4888,0.4789,0.4867,0.4934,0.4939,0.4943,0.4909,0.4909,0.4895,0.4894,0.4893,0.4893,0,0.3541,0.3596,0.3637,0.3869,0.3922,0.3987,0.4097,0.419,0.4261,0.4308,0.4509,0.4702,0.4826,0.493,0.4984,0.5103,0.5005,0.4932,0.4842,0.496,0.4921,0.4919,0.4905,0.4902,0.49,0.4898,0,0,0.3516,0.3639,0.3669,0.3755,0.3933,0.3963,0.4078,0.4197,0.422,0.4452,0.4515,0.485,0.4954,0.5031,0.5136,0.5185,0.5234,0.5099,0.5092,0.5021,0.5051,0.4774,0.4745,0.5087,0.5087,0.5088,0.5019,0,0.3575,0.365,0.3689,0.378,0.3829,0.3954,0.4026,0.4143,0.4279,0.4389,0.4658,0.4802,0.4979,0.5089,0.5173,0.5193,0.5226,0.5259,0.4991,0.4987,0.4681,0.4734,0.4464,0.4356,0.5016,0.5016,0.5016,0,0.3613,0.3643,0.3682,0.3727,0.3763,0.3816,0.3926,0.4013,0.4205,0.4317,0.4539,0.4691,0.496,0.504,0.516,0.5126,0.513,0.5143,0.5135,0.4831,0.4703,0.4346,0.4327,0.5011,0.5012,0.5012,0.5012,0,0.3544,0.3624,0.3628,0.3663,0.3741,0.3781,0.3853,0.4004,0.4078,0.4296,0.439,0.4624,0.4803,0.4841,0.5022,0.5036,0.5022,0.5018,0.477,0.4751,0.4459,0.441,0.5023,0.5023,0.5023,0.5023,0.5023,0,0.354,0.3553,0.3597,0.3605,0.3602,0.371,0.3757,0.3858,0.4025,0.4128,0.4376,0.4512,0.4742,0.4812,0.4909,0.4831,0.4926,0.4792,0.4699,0.4495,0.4453,0.4968,0.4963,0.502,0.5021,0.5021,0.5022,0,0.3478,0.3525,0.351,0.3553,0.3576,0.3587,0.3704,0.3739,0.3919,0.407,0.4165,0.4411,0.4507,0.4645,0.4707,0.4664,0.4628,0.4557,0.4329,0.4208,0.4441,0.4444,0.4274,0.4263,0.4254,0.4247,0.424,0,0.3436,0.3421,0.344,0.3418,0.3449,0.3492,0.3526,0.3692,0.3773,0.4025,0.4101,0.4245,0.434,0.4283,0.4212,0.4159,0.4395,0.3829,0.3845,0.443,0.4358,0.4375,0.439,0.3549,0.3537,0.3528,0.352,0,0.3283,0.3312,0.3277,0.3284,0.33,0.3319,0.3427,0.3463,0.3696,0.3823,0.3962,0.4031,0.3989,0.3784,0.3652,0.3617,0.3812,0.3623,0.4246,0.3745,0.3728,0.3664,0.3706,0.3436,0.3445,0.3451,0.3455,0.3459,0.3131,0.3115,0.3105,0.3114,0.3128,0.3185,0.3207,0.3318,0.3426,0.3572,0.369,0.3655,0.3533,0.3183,0.3058,0.2973,0.3223,0.3137,0.3175,0.3221,0.3114,0.3076,0.2648,0.2651,0.2655,0.2657,0.266,0,0.2992,0.3029,0.2947,0.2961,0.2942,0.3077,0.3156,0.3144,0.3241,0.3273,0.3316,0.2899,0.271,0.2683,0.2399,0.2281,0.2375,0.2238,0.2395,0.2474,0.2546,0.2416,0.1759,0.1757,0.1755,0.1753,0,0,0.2875,0.2842,0.2843,0.2778,0.2856,0.2909,0.298,0.2907,0.2891,0.2734,0.2646,0.2631,0.2614,0.2163,0.2037,0.1901,0.2213,0.1838,0.2557,0.2829,0.29,0.3041,0.2922,0,0,0,0,0]},{"header":{"parameterUnit":"m.s-1","parameterCategory":2,"la1":30.2991,"la2":30.254,"lo1":-89.0895,"lo2":-89.0444,"dy":0.0017,"dx":0.0017,"nx":28,"ny":28,"refTime":"2023-08-15T21:00:00:Z","depth":"2","parameterNumber":3,"parameterNumberName":"V-component_of_CURRENTS"},"data":[0,0,0,0,0,0,0,0,0,0,0,0,0,0,0,0,0,0,0,0,0,0,0,0,0,0,0,0,0,0,0,0,0,0,0,0,0,0,0,0,0,0,0,0,0,0,0,0,0,0,0,0,0,0,0,0,0,0,0.0067,0.0068,0,0.013,0.013,0.013,0.0116,0.0116,0.0116,0.0116,0.008,0.0079,0.0078,0,0,0,0,0,0,0,0,0,0,0,0,0,-0.0037,-0.0036,0.0066,0.0068,0.007,0.013,0.013,0.013,0.0116,0.0116,0.0116,0.0116,0.008,0.0079,0.0078,0,0,0,0,0,0,0,0,0,0,0,0,0,0.0004,-0.0036,0.0066,0.0079,0.0082,0.013,0.013,0.013,0.0116,0.0116,0.0116,0.0116,0.008,0.0079,0.0078,0.0072,0,0,0.0074,0.0073,0,0,0,0,0,0,0,0,0.0001,0.0006,0.0076,0.0079,0.0082,0.0126,0.0081,0.011,0.0116,0.0091,0.0116,0.0116,0.0094,0.0091,0.0088,0.0071,0.0069,0.0073,0.0073,0.0072,0.0072,0,0,0,0,0,0,0,-0.0001,0.0004,0.008,0.0078,0.0082,0.0094,0.0098,0.0086,0.0081,0.0093,0.0095,0.0121,0.0093,0.0089,0.0087,0.0068,0.0074,0.0072,0.0072,0.0071,0.0163,0.0166,0,0,0,0,0,0,0.0014,0.0001,0.0078,0.0083,0.0054,0.0096,0.01,0.0102,0.0083,0.0085,0.0121,0.0121,0.0092,0.0088,0.0086,0.016,0.0072,0.0071,0.007,0.016,0.0164,0.0167,0,0,0,0,0,0,0.001,0.0019,0.0075,0.0054,0.0064,0.0099,0.0101,0.0104,0.0117,0.0108,0.0105,0.0136,0.0091,0.0087,0.0095,0.0155,0.007,0.0069,0.0156,0.0161,0.0166,0.0257,0,0,0,0,0,0,0.0007,0.0016,0.0016,0.0054,0.0066,0.0127,0.0102,0.0105,0.0139,0.0138,0.012,0.0115,0.0091,0.0098,0.0094,0.0152,0.0068,0.0152,0.0158,0.0164,0.025,0.0264,0.0276,0,0,0,0,0,0.0002,-0.0037,0.0015,0.0026,0.0066,0.013,0.0136,0.0152,0.014,0.0159,0.0142,0.0116,0.0135,0.0098,0.0093,0.0152,0.0149,0.0157,0.0164,0.0244,0.0261,0.0276,0,0,0,0,0,0,-0.0109,-0.0038,0.0018,-0.0001,0.0093,0.0132,0.0146,0.0165,0.0166,0.016,0.0132,0.0127,0.0155,0.0148,0.0108,0.0204,0.0149,0.0156,0.0212,0.0228,0.0241,0.0299,0.0067,0,0,0,0,0,-0.0115,-0.0112,-0.0008,-0.0011,0.0046,0.0111,0.0135,0.0163,0.018,0.018,0.017,0.0171,0.0182,0.0198,0.019,0.0235,0.0176,0.0282,0.0296,0.0307,0.0356,0.0253,0.0259,0.0191,0.0191,0.0191,0,0,-0.0149,-0.0114,-0.0107,-0.0028,0.0043,0.0103,0.0121,0.0177,0.021,0.0175,0.0191,0.0197,0.0198,0.0243,0.0261,0.0248,0.0301,0.0316,0.0325,0.0369,0.0261,0.0266,0.0272,0.0196,0.0195,0.0195,0,0,-0.0196,-0.017,-0.0143,-0.0071,0.0051,0.009,0.0119,0.0196,0.0225,0.0266,0.025,0.0321,0.0305,0.0358,0.0372,0.0468,0.0354,0.0452,0.0586,0.0484,0.0487,0.049,0.0429,0.0425,0.0482,0.0482,0.0482,0,-0.0207,-0.0182,-0.0122,-0.0063,-0.0002,0.009,0.0158,0.0192,0.025,0.0309,0.0285,0.0378,0.0381,0.0488,0.0533,0.0504,0.0405,0.0513,0.0496,0.0497,0.0497,0.0434,0.0428,0.0487,0.0487,0.0486,0.0486,0,-0.02,-0.017,-0.0148,-0.0039,0.0019,0.0088,0.0186,0.0246,0.0293,0.0356,0.0479,0.0514,0.0608,0.0614,0.0601,0.0659,0.0573,0.0492,0.044,0.0509,0.0439,0.0432,0.0495,0.0493,0.0492,0.049,0,0,-0.019,-0.0142,-0.0118,-0.0052,0.0048,0.0114,0.018,0.0323,0.0415,0.0492,0.0623,0.0713,0.0796,0.0825,0.0845,0.0795,0.0732,0.0658,0.065,0.0578,0.0489,0.0441,0.0426,0.0581,0.0581,0.058,0.0438,0,-0.0143,-0.0075,-0.0065,0.0032,0.0108,0.0191,0.0255,0.0374,0.0477,0.0607,0.0734,0.0851,0.0853,0.0937,0.0896,0.0771,0.0714,0.078,0.0457,0.0451,0.0378,0.0418,0.041,0.0282,0.043,0.0428,0.0427,0,-0.007,-0.0046,0.0039,0.0122,0.0174,0.0222,0.0407,0.0478,0.0661,0.0755,0.0928,0.1006,0.1116,0.1036,0.0906,0.0916,0.074,0.0607,0.0595,0.0523,0.0388,0.024,0.0261,0.0413,0.0415,0.0416,0.0417,0,-0.0014,0.0055,0.0117,0.015,0.024,0.0313,0.038,0.0548,0.0671,0.0881,0.1012,0.1114,0.1201,0.1012,0.0881,0.084,0.0626,0.0527,0.0328,0.0322,0.0256,0.0246,0.0367,0.0367,0.0368,0.0368,0.0369,0,0.006,0.0117,0.0149,0.0197,0.0302,0.0359,0.0524,0.0624,0.081,0.101,0.1119,0.1287,0.1167,0.1096,0.0887,0.0632,0.0641,0.0381,0.0285,0.0292,0.0287,0.0355,0.0356,0.0363,0.0364,0.0365,0.0366,0,0.0123,0.0143,0.022,0.0299,0.0334,0.042,0.0586,0.0728,0.0883,0.1144,0.1237,0.138,0.1294,0.1145,0.0848,0.0664,0.0403,0.0284,0.0344,0.0259,0.0158,0.0166,0.0048,0.0045,0.0042,0.004,0.0039,0,0.0148,0.0196,0.0286,0.0336,0.0373,0.0494,0.0607,0.0766,0.0942,0.1229,0.1375,0.1403,0.1488,0.1085,0.0719,0.0351,0.0338,0.0101,0.0053,0.0209,0.0126,0.0138,0.0149,-0.0002,-0.0004,-0.0005,-0.0006,0,0.0187,0.0232,0.0284,0.0395,0.0502,0.0643,0.0819,0.0967,0.1221,0.1441,0.1691,0.1759,0.1428,0.1072,0.0573,0.0331,0.0173,0.0055,0.017,0.0091,0.0153,0.0075,0.0089,-0.002,-0.0019,-0.0018,-0.0017,-0.0016,0.0203,0.0261,0.0353,0.0469,0.0594,0.0817,0.0987,0.121,0.1505,0.1829,0.1826,0.1866,0.1433,0.0758,0.0398,0.0029,0.0016,-0.0127,-0.0119,-0.011,-0.0079,-0.0025,-0.0223,-0.0223,-0.0222,-0.0222,-0.0222,0,0.0259,0.0339,0.0423,0.0602,0.0781,0.0855,0.1159,0.136,0.1728,0.1866,0.2018,0.1601,0.1191,0.0762,0.0161,-0.0195,-0.018,-0.0252,-0.0179,-0.0167,-0.0155,-0.0122,-0.028,-0.028,-0.0281,-0.0281,0,0,0.0285,0.0404,0.0469,0.075,0.09,0.1198,0.1402,0.1666,0.1811,0.196,0.1919,0.1718,0.1206,0.0747,0.0286,0.0013,0.0027,-0.0018,0.0048,0.0196,0.0213,-0.0085,-0.0021,0,0,0,0,0]}],[{"header":{"parameterUnit":"m.s-1","parameterCategory":2,"la1":30.2991,"la2":30.254,"lo1":-89.0895,"lo2":-89.0444,"dy":0.0017,"dx":0.0017,"nx":28,"ny":28,"refTime":"2023-08-15T21:00:00:Z","depth":"4","parameterNumber":2,"parameterNumberName":"U-component_of_CURRENTS"},"data":[0,0,0,0,0,0,0,0,0,0,0,0,0,0,0,0,0,0,0,0,0,0,0,0,0,0,0,0,0,0,0,0,0,0,0,0,0,0,0,0,0,0,0,0,0,0,0,0,0,0,0,0,0,0,0,0,0,0,0.1015,0.102,0,0.1218,0.1217,0.1217,0.1287,0.1289,0.1292,0.1294,0.1105,0.1098,0.1091,0,0,0,0,0,0,0,0,0,0,0,0,0,0.0759,0.076,0.1015,0.1021,0.1026,0.1218,0.1217,0.1216,0.1286,0.1289,0.1292,0.1295,0.1108,0.1099,0.109,0,0,0,0,0,0,0,0,0,0,0,0,0,0.0873,0.076,0.1014,0.111,0.1124,0.1218,0.1217,0.1216,0.1286,0.129,0.1293,0.1297,0.111,0.11,0.1089,0.0947,0,0,0.1055,0.1051,0,0,0,0,0,0,0,0,0.0866,0.0877,0.109,0.1104,0.112,0.1262,0.106,0.1119,0.1285,0.1187,0.1294,0.1298,0.1141,0.1128,0.1113,0.0939,0.093,0.1054,0.1048,0.1043,0.104,0,0,0,0,0,0,0,0.0858,0.087,0.1059,0.1097,0.1115,0.1171,0.1186,0.1071,0.1106,0.1196,0.121,0.1288,0.1142,0.1124,0.1109,0.0928,0.1055,0.1045,0.1038,0.1034,0.0853,0.0855,0,0,0,0,0,0,0.0896,0.0862,0.1054,0.1069,0.1039,0.1175,0.119,0.1183,0.1117,0.1124,0.1285,0.1291,0.1141,0.1122,0.1102,0.109,0.1043,0.1033,0.1027,0.0852,0.0854,0.0856,0,0,0,0,0,0,0.0888,0.0907,0.1046,0.1004,0.103,0.1178,0.1168,0.1186,0.1262,0.1195,0.1188,0.1359,0.1143,0.1118,0.1038,0.1077,0.1028,0.1018,0.0849,0.0852,0.0855,0.0961,0,0,0,0,0,0,0.0877,0.09,0.0929,0.1003,0.1035,0.108,0.1169,0.1189,0.1317,0.1328,0.1253,0.1235,0.1144,0.1055,0.1028,0.1061,0.1009,0.0847,0.0851,0.0854,0.0955,0.0967,0.0977,0,0,0,0,0,0.0866,0.0854,0.0925,0.0954,0.1058,0.1081,0.1094,0.1193,0.1318,0.1286,0.1282,0.1242,0.106,0.1045,0.1013,0.1045,0.0846,0.085,0.0854,0.095,0.0965,0.0977,0,0,0,0,0,0,0.073,0.0867,0.0945,0.0971,0.1035,0.1107,0.1135,0.1243,0.1226,0.1283,0.1215,0.1189,0.1156,0.1079,0.1066,0.1012,0.0965,0.0963,0.1051,0.1063,0.1073,0.1086,0.1,0,0,0,0,0,0.073,0.0758,0.0884,0.0899,0.0944,0.1068,0.1123,0.1212,0.1231,0.124,0.1195,0.1169,0.1129,0.1084,0.101,0.0933,0.0905,0.0953,0.0964,0.0974,0.0967,0.0959,0.0968,0.0869,0.0869,0.0869,0,0,0.0696,0.0773,0.0798,0.0879,0.0942,0.0979,0.1095,0.1193,0.1238,0.1208,0.1201,0.1195,0.1125,0.1064,0.1044,0.1008,0.0993,0.0979,0.0987,0.0974,0.0964,0.0973,0.0982,0.0872,0.0871,0.0871,0,0,0.0622,0.0691,0.0712,0.0758,0.0915,0.097,0.1027,0.1136,0.119,0.119,0.1233,0.1243,0.1129,0.1102,0.1077,0.1097,0.1066,0.112,0.1152,0.1145,0.1153,0.1159,0.1162,0.1167,0.1107,0.1107,0.1107,0,0.0603,0.0638,0.0711,0.074,0.0819,0.0974,0.1026,0.1058,0.1134,0.1184,0.119,0.1198,0.1139,0.1141,0.1164,0.1119,0.1126,0.1105,0.1159,0.1164,0.1169,0.1169,0.1174,0.1113,0.1112,0.1112,0.1111,0,0.0553,0.0607,0.0605,0.0696,0.0743,0.081,0.0916,0.0965,0.1087,0.116,0.1224,0.1172,0.1193,0.1197,0.1171,0.1218,0.122,0.119,0.1124,0.1185,0.1182,0.1185,0.1121,0.1119,0.1117,0.1116,0,0,0.0473,0.0572,0.0583,0.0653,0.077,0.0809,0.0855,0.0962,0.1071,0.1107,0.1212,0.118,0.1271,0.1253,0.1274,0.1257,0.1305,0.1253,0.125,0.1253,0.1322,0.1242,0.1237,0.1306,0.1306,0.1307,0.1317,0,0.0452,0.0498,0.0563,0.0629,0.068,0.0805,0.0831,0.0948,0.1045,0.1137,0.1198,0.1294,0.1261,0.1355,0.1323,0.1314,0.1315,0.1306,0.1263,0.1261,0.118,0.1237,0.1308,0.1318,0.1319,0.1319,0.132,0,0.0417,0.0468,0.0534,0.0669,0.071,0.0766,0.0925,0.0989,0.1127,0.1229,0.1334,0.1409,0.1447,0.1429,0.1387,0.1398,0.1382,0.1348,0.1347,0.1229,0.1185,0.1237,0.1324,0.1324,0.1323,0.1323,0.1323,0,0.0356,0.046,0.0532,0.0571,0.0713,0.0796,0.0898,0.1036,0.1145,0.1351,0.1456,0.1511,0.1586,0.1533,0.1457,0.1465,0.1384,0.1375,0.1284,0.1278,0.1299,0.1291,0.1367,0.1367,0.1367,0.1367,0.1367,0,0.0326,0.0384,0.0528,0.0571,0.0695,0.0811,0.0989,0.1093,0.1283,0.139,0.1544,0.1603,0.1625,0.1578,0.1492,0.1366,0.1407,0.1297,0.1273,0.1348,0.1346,0.1302,0.1295,0.1367,0.1367,0.1367,0.1367,0,0.0253,0.0339,0.0432,0.0605,0.0674,0.0778,0.1049,0.1164,0.136,0.1497,0.1589,0.1707,0.166,0.1607,0.1525,0.1423,0.1311,0.1271,0.136,0.134,0.1216,0.1214,0.1198,0.1196,0.1193,0.1191,0.119,0,0.0224,0.0259,0.0439,0.0518,0.0622,0.0817,0.0945,0.119,0.1283,0.1489,0.1496,0.1601,0.1629,0.1453,0.1397,0.1271,0.1243,0.1224,0.1224,0.1219,0.1198,0.12,0.1201,0.1186,0.1185,0.1185,0.1184,0,0.0172,0.0241,0.0321,0.0472,0.0625,0.08,0.0974,0.1027,0.1251,0.1419,0.1458,0.1495,0.1448,0.1384,0.133,0.1207,0.1246,0.1199,0.1204,0.1204,0.1203,0.1185,0.1189,0.1176,0.1177,0.1178,0.1178,0,0.0136,0.0172,0.0287,0.043,0.0611,0.0734,0.0838,0.0959,0.1103,0.1277,0.125,0.1326,0.1413,0.1346,0.1224,0.1168,0.116,0.1136,0.1145,0.1153,0.1124,0.1115,0.1045,0,0,0,0,0,0.0107,0.0148,0.0246,0.0394,0.0568,0.0682,0.0836,0.0921,0.106,0.1068,0.1186,0.1147,0.1145,0.1163,0.1087,0.1132,0.1105,0.1037,0.1068,0.113,0.114,0.1103,0,0,0,0,0,0,0.0087,0.0158,0.0212,0.0371,0.0457,0.0641,0.0739,0.0804,0.0815,0.0944,0.0938,0.1089,0.1062,0.117,0.107,0.1067,0.1067,0.1084,0.1082,0.1125,0.1133,0.1141,0.1107,0,0,0,0,0]},{"header":{"parameterUnit":"m.s-1","parameterCategory":2,"la1":30.2991,"la2":30.254,"lo1":-89.0895,"lo2":-89.0444,"dy":0.0017,"dx":0.0017,"nx":28,"ny":28,"refTime":"2023-08-15T21:00:00:Z","depth":"4","parameterNumber":3,"parameterNumberName":"V-component_of_CURRENTS"},"data":[0,0,0,0,0,0,0,0,0,0,0,0,0,0,0,0,0,0,0,0,0,0,0,0,0,0,0,0,0,0,0,0,0,0,0,0,0,0,0,0,0,0,0,0,0,0,0,0,0,0,0,0,0,0,0,0,0,0,0.0016,0.0016,0,-0.0008,-0.0008,-0.0009,-0.0042,-0.0042,-0.0043,-0.0043,-0.0188,-0.0191,-0.0195,0,0,0,0,0,0,0,0,0,0,0,0,0,0.0048,0.0047,0.0016,0.0016,0.0016,-0.0008,-0.0009,-0.0009,-0.0042,-0.0042,-0.0043,-0.0043,-0.0187,-0.0191,-0.0195,0,0,0,0,0,0,0,0,0,0,0,0,0,0.0028,0.0047,0.0016,-0.0002,-0.0004,-0.0008,-0.0009,-0.0009,-0.0042,-0.0042,-0.0043,-0.0043,-0.0185,-0.0191,-0.0196,-0.0218,0,0,-0.0212,-0.0214,0,0,0,0,0,0,0,0,0.0029,0.0026,0.0001,-0.0001,-0.0002,-0.002,-0.005,-0.0084,-0.0042,-0.003,-0.0043,-0.0044,-0.0141,-0.015,-0.0155,-0.0225,-0.0232,-0.0213,-0.0216,-0.0218,-0.022,0,0,0,0,0,0,0,0.003,0.0027,0.0004,0.0001,-0.0001,-0.0003,-0.0007,-0.0056,-0.0087,-0.0031,-0.0033,-0.0031,-0.0143,-0.015,-0.0159,-0.0234,-0.0212,-0.0217,-0.022,-0.0223,-0.0362,-0.0362,0,0,0,0,0,0,0.0038,0.0028,0.0005,0.0003,0.0015,-0.0003,-0.0008,-0.0016,-0.0083,-0.0092,-0.0031,-0.0033,-0.0141,-0.0153,-0.0165,-0.0198,-0.0218,-0.0223,-0.0226,-0.0361,-0.0362,-0.0363,0,0,0,0,0,0,0.0038,0.0035,0.0006,0.0018,0.0014,-0.0003,-0.0012,-0.0016,-0.0028,-0.0082,-0.0094,-0.0039,-0.0142,-0.0157,-0.0177,-0.0204,-0.0225,-0.023,-0.0361,-0.0362,-0.0362,-0.0263,0,0,0,0,0,0,0.0039,0.0035,0.0036,0.0018,0.0014,0.0003,-0.0012,-0.0016,-0.0025,-0.0028,-0.0093,-0.0106,-0.0143,-0.0168,-0.0182,-0.0212,-0.0234,-0.036,-0.0361,-0.0362,-0.0266,-0.0261,-0.0256,0,0,0,0,0,0.004,0.0075,0.0036,0.0034,0.0013,0.0004,0.0001,-0.0014,-0.0025,-0.0028,-0.0046,-0.0104,-0.0187,-0.0171,-0.0188,-0.022,-0.036,-0.0361,-0.0362,-0.0268,-0.0262,-0.0256,0,0,0,0,0,0,0.0108,0.0073,0.0031,0.0054,0.0018,-0.0001,0.002,-0.0014,-0.0031,-0.0036,-0.0085,-0.0099,-0.0148,-0.0187,-0.0169,-0.0266,-0.0295,-0.0299,-0.0218,-0.0213,-0.0208,-0.0199,-0.0239,0,0,0,0,0,0.0114,0.0122,0.0069,0.0087,0.0075,0.0035,0.0032,-0.0002,-0.0019,-0.0027,-0.0075,-0.0124,-0.0166,-0.0185,-0.0244,-0.0269,-0.0314,-0.0312,-0.0307,-0.0302,-0.0307,-0.0383,-0.0384,-0.0366,-0.0366,-0.0366,0,0,0.0146,0.0132,0.0134,0.01,0.0082,0.0077,0.0033,0.0022,0.0017,-0.0043,-0.0053,-0.0119,-0.0173,-0.0208,-0.0236,-0.0238,-0.0323,-0.0303,-0.0298,-0.0307,-0.0384,-0.0386,-0.0387,-0.0367,-0.0367,-0.0367,0,0,0.0226,0.0197,0.0218,0.0192,0.0149,0.0118,0.011,0.0057,0.0035,0.001,-0.0042,-0.01,-0.016,-0.0203,-0.0227,-0.0231,-0.0308,-0.0275,-0.0224,-0.0296,-0.0298,-0.03,-0.0319,-0.0324,-0.0255,-0.0255,-0.0255,0,0.0253,0.0266,0.0225,0.0235,0.0225,0.014,0.0144,0.0121,0.0061,0.003,0.0016,-0.0108,-0.0155,-0.0198,-0.0192,-0.0223,-0.0259,-0.0232,-0.0287,-0.0291,-0.0295,-0.0315,-0.0321,-0.025,-0.0251,-0.0251,-0.0252,0,0.0329,0.0332,0.0357,0.0327,0.0313,0.0304,0.0248,0.0209,0.016,0.0104,0.002,-0.0042,-0.0122,-0.0152,-0.0157,-0.0225,-0.0238,-0.0281,-0.0293,-0.029,-0.0311,-0.032,-0.0244,-0.0245,-0.0247,-0.0248,0,0,0.0382,0.0398,0.04,0.0392,0.0347,0.0337,0.0332,0.0271,0.0239,0.0156,0.0104,0.0037,-0.0053,-0.0087,-0.0146,-0.0188,-0.0222,-0.0229,-0.0235,-0.0231,-0.0346,-0.0314,-0.0321,-0.0278,-0.0279,-0.0281,-0.0333,0,0.043,0.0476,0.0467,0.0488,0.0491,0.0423,0.0423,0.0354,0.0282,0.0205,0.0104,0.003,-0.0008,-0.0058,-0.0112,-0.0224,-0.0248,-0.0202,-0.0367,-0.0371,-0.033,-0.0332,-0.0287,-0.034,-0.0342,-0.0344,-0.0345,0,0.0478,0.0499,0.0546,0.0535,0.0529,0.0541,0.0479,0.0455,0.0339,0.0276,0.0169,0.0065,-0.0026,-0.0061,-0.0214,-0.0186,-0.025,-0.0314,-0.0319,-0.0337,-0.0357,-0.0359,-0.0361,-0.036,-0.0359,-0.0358,-0.0357,0,0.0512,0.0541,0.0584,0.0584,0.0571,0.058,0.056,0.0472,0.0439,0.031,0.0249,0.01,0.0018,-0.0099,-0.0232,-0.0231,-0.0397,-0.0421,-0.044,-0.0437,-0.0492,-0.049,-0.0512,-0.0512,-0.0512,-0.0512,-0.0512,0,0.0546,0.0572,0.0614,0.0631,0.0655,0.063,0.0627,0.0567,0.0486,0.0416,0.0286,0.0191,-0.0001,-0.013,-0.0233,-0.0361,-0.04,-0.0432,-0.046,-0.0443,-0.0435,-0.0495,-0.0492,-0.0514,-0.0513,-0.0513,-0.0512,0,0.0566,0.0601,0.064,0.0665,0.0679,0.0692,0.0694,0.067,0.0595,0.05,0.0462,0.0255,0.0071,-0.0089,-0.0295,-0.0352,-0.0479,-0.0504,-0.0438,-0.0462,-0.0462,-0.0454,-0.0534,-0.0534,-0.0534,-0.0533,-0.0533,0,0.0579,0.061,0.0671,0.0694,0.0718,0.0749,0.076,0.0726,0.0676,0.0524,0.0452,0.0273,0.0122,-0.0116,-0.0297,-0.0471,-0.0489,-0.0513,-0.0514,-0.0451,-0.047,-0.0463,-0.0455,-0.0533,-0.0532,-0.0532,-0.0532,0,0.0579,0.0616,0.0643,0.0703,0.075,0.0785,0.0784,0.0748,0.0664,0.0637,0.0454,0.0302,0.0091,-0.0126,-0.025,-0.0384,-0.0485,-0.051,-0.0511,-0.0512,-0.045,-0.0467,-0.0461,-0.0531,-0.0531,-0.0531,-0.0531,0,0.0568,0.0587,0.0638,0.0674,0.0754,0.0765,0.0767,0.0713,0.0683,0.0519,0.0459,0.0245,0.0122,-0.0083,-0.0219,-0.0331,-0.036,-0.0356,-0.0366,-0.0369,-0.0312,-0.0208,-0.0238,0,0,0,0,0,0.0545,0.0556,0.0592,0.0626,0.0711,0.0763,0.0752,0.0731,0.0662,0.0562,0.0516,0.0328,0.0099,-0.0035,-0.0142,-0.0242,-0.0402,-0.0369,-0.0407,-0.0524,-0.0525,-0.0484,0,0,0,0,0,0,0.0525,0.0563,0.0572,0.0604,0.0633,0.071,0.0719,0.066,0.0585,0.051,0.0379,0.0359,0.0114,0.018,-0.0123,-0.0166,-0.0191,-0.0471,-0.0471,-0.0523,-0.0524,-0.0526,-0.0484,0,0,0,0,0]}]]